[[{"header":{"parameterUnit":"m.s-1","parameterCategory":1,"la1":30.2991,"la2":30.254,"lo1":-89.0895,"lo2":-89.0444,"dy":0.0017,"dx":0.0017,"nx":28,"ny":28,"refTime":"2023-09-01T09:00:00:Z","depth":0,"parameterNumber":2,"parameterNumberName":"U-component_of_WINDS"},"data":[0,0,0,0,0,0,0,0,0,0,0,0,0,0,0,0,0,0,0,0,0,0,0,0,0,0,0,0,0,0,0,0,0,0,0,0,0,0,0,0,0,0,0,0,0,0,0,0,0,0,0,0,0,0,0,0,0,0,-2.4443,-2.4445,0,-2.4607,-2.4609,-2.4611,-2.4671,-2.4671,-2.467,-2.4669,-2.4834,-2.4839,-2.4844,0,0,0,0,0,0,0,0,0,0,0,0,0,-2.4179,-2.4184,-2.4443,-2.4445,-2.4447,-2.4607,-2.4609,-2.4611,-2.4671,-2.4671,-2.467,-2.4669,-2.4833,-2.4838,-2.4844,0,0,0,0,0,0,0,0,0,0,0,0,0,-2.4313,-2.4185,-2.4443,-2.4497,-2.4503,-2.4606,-2.4609,-2.4612,-2.4671,-2.467,-2.467,-2.4669,-2.4831,-2.4838,-2.4845,-2.4906,0,0,-2.4867,-2.4871,0,0,0,0,0,0,0,0,-2.4306,-2.4323,-2.4487,-2.4493,-2.45,-2.4618,-2.4577,-2.4711,-2.4671,-2.4607,-2.4669,-2.4669,-2.4763,-2.4776,-2.4808,-2.4914,-2.4921,-2.4868,-2.4873,-2.4876,-2.4878,0,0,0,0,0,0,0,-2.4296,-2.4316,-2.4508,-2.4489,-2.4497,-2.4511,-2.453,-2.4602,-2.4687,-2.4613,-2.4618,-2.4636,-2.4766,-2.4801,-2.4812,-2.4924,-2.4868,-2.4874,-2.4879,-2.4882,-2.5087,-2.5088,0,0,0,0,0,0,-2.4279,-2.4308,-2.4503,-2.4513,-2.4399,-2.4517,-2.4537,-2.4581,-2.4687,-2.4702,-2.4637,-2.4639,-2.4789,-2.4804,-2.4818,-2.4896,-2.4876,-2.4883,-2.4887,-2.5086,-2.5087,-2.5088,0,0,0,0,0,0,-2.4273,-2.4295,-2.4496,-2.4412,-2.4439,-2.4522,-2.4571,-2.4585,-2.4619,-2.4705,-2.472,-2.4657,-2.4789,-2.4808,-2.4884,-2.4903,-2.4886,-2.4892,-2.5085,-2.5086,-2.5088,-2.5053,0,0,0,0,0,0,-2.4265,-2.4293,-2.4318,-2.4412,-2.4443,-2.456,-2.4572,-2.4588,-2.4632,-2.4636,-2.4728,-2.4742,-2.4789,-2.4873,-2.4891,-2.4913,-2.4898,-2.5083,-2.5086,-2.5087,-2.5053,-2.5053,-2.5053,0,0,0,0,0,-2.4255,-2.4301,-2.4319,-2.4342,-2.4476,-2.4561,-2.4579,-2.4633,-2.4633,-2.4658,-2.4713,-2.4739,-2.4898,-2.488,-2.4901,-2.4925,-2.5082,-2.5085,-2.5087,-2.5053,-2.5053,-2.5053,0,0,0,0,0,0,-2.4206,-2.4314,-2.4335,-2.4413,-2.4477,-2.4571,-2.4604,-2.4632,-2.4697,-2.4698,-2.4762,-2.4782,-2.4852,-2.4897,-2.4875,-2.499,-2.4992,-2.4998,-2.4958,-2.4959,-2.496,-2.4947,-2.4904,0,0,0,0,0,-2.4204,-2.4265,-2.4356,-2.4416,-2.4447,-2.452,-2.4559,-2.4596,-2.4665,-2.4692,-2.4753,-2.4818,-2.4882,-2.4923,-2.4988,-2.506,-2.508,-2.5087,-2.5087,-2.5087,-2.5091,-2.5132,-2.5136,-2.5096,-2.5096,-2.5096,0,0,-2.4201,-2.4268,-2.4302,-2.4408,-2.4462,-2.4523,-2.4543,-2.4606,-2.4651,-2.4701,-2.4777,-2.4823,-2.49,-2.4974,-2.501,-2.5013,-2.5107,-2.509,-2.5089,-2.5094,-2.5135,-2.5138,-2.5142,-2.5098,-2.5098,-2.5097,0,0,-2.4226,-2.4283,-2.4339,-2.4393,-2.4475,-2.4523,-2.4536,-2.4626,-2.4659,-2.4736,-2.4775,-2.4829,-2.4939,-2.4992,-2.5033,-2.5078,-2.5103,-2.5097,-2.5098,-2.5137,-2.514,-2.5143,-2.5158,-2.5163,-2.5101,-2.5101,-2.5101,0,-2.4211,-2.4305,-2.4364,-2.4425,-2.447,-2.4519,-2.4575,-2.4624,-2.4723,-2.4752,-2.4755,-2.4894,-2.4949,-2.5035,-2.5046,-2.5078,-2.5095,-2.5086,-2.5135,-2.5139,-2.5142,-2.5157,-2.5163,-2.51,-2.51,-2.51,-2.51,0,-2.4282,-2.4347,-2.4382,-2.4476,-2.4525,-2.4584,-2.465,-2.4692,-2.4724,-2.4772,-2.4849,-2.4917,-2.4995,-2.5019,-2.5051,-2.511,-2.5109,-2.5123,-2.5126,-2.5144,-2.5159,-2.5165,-2.5098,-2.5098,-2.5099,-2.5099,0,0,-2.4281,-2.4407,-2.4418,-2.4462,-2.4556,-2.4606,-2.4666,-2.4744,-2.4778,-2.4844,-2.4896,-2.4988,-2.5001,-2.5047,-2.5085,-2.512,-2.5149,-2.5129,-2.5132,-2.5129,-2.5218,-2.5206,-2.5212,-2.5167,-2.5169,-2.517,-2.5211,0,-2.4317,-2.4428,-2.4482,-2.4569,-2.4628,-2.4675,-2.4728,-2.479,-2.4836,-2.4893,-2.4943,-2.5007,-2.5019,-2.5048,-2.5084,-2.5138,-2.5168,-2.5136,-2.5214,-2.5216,-2.5193,-2.522,-2.5209,-2.5244,-2.5217,-2.5218,-2.5219,0,-2.4375,-2.4441,-2.4533,-2.462,-2.4647,-2.4693,-2.4768,-2.4822,-2.4894,-2.4925,-2.4977,-2.5014,-2.5078,-2.5077,-2.5166,-2.5143,-2.5178,-2.5209,-2.5212,-2.5221,-2.5218,-2.5229,-2.5257,-2.5262,-2.5229,-2.5228,-2.5228,0,-2.4362,-2.4475,-2.4545,-2.458,-2.4683,-2.4714,-2.4759,-2.483,-2.4873,-2.4938,-2.4966,-2.5038,-2.5077,-2.5131,-2.5186,-2.5181,-2.5269,-2.5273,-2.5295,-2.5294,-2.5311,-2.5309,-2.5345,-2.5335,-2.5335,-2.5335,-2.5335,0,-2.4397,-2.4452,-2.4541,-2.4583,-2.4646,-2.4707,-2.4767,-2.4814,-2.4877,-2.4929,-2.4974,-2.5022,-2.5092,-2.5149,-2.5192,-2.5258,-2.5276,-2.5302,-2.5312,-2.5297,-2.5294,-2.5321,-2.5319,-2.5336,-2.5336,-2.5336,-2.5336,0,-2.4394,-2.4456,-2.4535,-2.4626,-2.465,-2.4692,-2.4769,-2.4812,-2.486,-2.4925,-2.4944,-2.5019,-2.5088,-2.5149,-2.5239,-2.5269,-2.5336,-2.535,-2.5312,-2.5317,-2.5336,-2.5333,-2.539,-2.54,-2.5384,-2.5384,-2.5384,0,-2.4411,-2.4455,-2.455,-2.4589,-2.4632,-2.4694,-2.4738,-2.48,-2.4844,-2.4929,-2.4961,-2.5033,-2.5094,-2.5201,-2.5263,-2.5332,-2.5348,-2.5363,-2.5358,-2.5342,-2.5347,-2.5343,-2.5348,-2.5362,-2.5362,-2.5362,-2.5362,0,-2.4436,-2.4464,-2.4527,-2.46,-2.4651,-2.4712,-2.4773,-2.4802,-2.4875,-2.4922,-2.4994,-2.5041,-2.5134,-2.5204,-2.528,-2.5325,-2.5355,-2.5363,-2.5372,-2.5356,-2.5332,-2.5344,-2.531,-2.5361,-2.5361,-2.5361,-2.5361,-2.5361,-2.4443,-2.4483,-2.4557,-2.4625,-2.4678,-2.4734,-2.4779,-2.4832,-2.4893,-2.4974,-2.5007,-2.5079,-2.5149,-2.5254,-2.5299,-2.5355,-2.5361,-2.5374,-2.5377,-2.5379,-2.5376,-2.5324,-2.537,-2.537,-2.537,-2.537,-2.537,0,-2.4469,-2.4518,-2.458,-2.4665,-2.4718,-2.4743,-2.4813,-2.4855,-2.4918,-2.4982,-2.5041,-2.5122,-2.519,-2.5258,-2.533,-2.5362,-2.5378,-2.5379,-2.5377,-2.5386,-2.5367,-2.5352,-2.5365,-2.5365,-2.5365,-2.5365,-2.5365,-2.5365,-2.4488,-2.4557,-2.4594,-2.469,-2.4739,-2.4811,-2.4848,-2.49,-2.4951,-2.504,-2.5097,-2.5141,-2.5206,-2.5283,-2.5347,-2.5365,-2.5389,-2.5386,-2.5408,-2.5388,-2.5388,-2.5388,-2.5374,-2.5391,-2.5391,-2.5422,-2.5423,-2.5423]},{"header":{"parameterUnit":"m.s-1","parameterCategory":1,"la1":30.2991,"la2":30.254,"lo1":-89.0895,"lo2":-89.0444,"dy":0.0017,"dx":0.0017,"nx":28,"ny":28,"refTime":"2023-09-01T09:00:00:Z","depth":0,"parameterNumber":3,"parameterNumberName":"V-component_of_WINDS"},"data":[0,0,0,0,0,0,0,0,0,0,0,0,0,0,0,0,0,0,0,0,0,0,0,0,0,0,0,0,0,0,0,0,0,0,0,0,0,0,0,0,0,0,0,0,0,0,0,0,0,0,0,0,0,0,0,0,0,0,0.7886,0.7885,0,0.7876,0.7876,0.7876,0.7838,0.7837,0.7836,0.7836,0.7827,0.7827,0.7828,0,0,0,0,0,0,0,0,0,0,0,0,0,0.7872,0.7872,0.7886,0.7885,0.7885,0.7876,0.7876,0.7876,0.7838,0.7837,0.7836,0.7835,0.7826,0.7827,0.7828,0,0,0,0,0,0,0,0,0,0,0,0,0,0.7872,0.7872,0.7886,0.7865,0.7864,0.7876,0.7876,0.7876,0.7839,0.7837,0.7836,0.7835,0.7826,0.7827,0.7828,0.7859,0,0,0.783,0.7831,0,0,0,0,0,0,0,0,0.7872,0.7872,0.7869,0.7867,0.7865,0.7857,0.7868,0.787,0.7839,0.7848,0.7836,0.7834,0.7838,0.7838,0.7839,0.7859,0.7858,0.7831,0.7831,0.7831,0.7832,0,0,0,0,0,0,0,0.7872,0.7872,0.7882,0.7869,0.7866,0.7857,0.7856,0.7868,0.785,0.7847,0.7844,0.7844,0.7837,0.7838,0.7838,0.7858,0.7831,0.7831,0.7832,0.7832,0.7904,0.7905,0,0,0,0,0,0,0.7875,0.7873,0.7882,0.7882,0.7865,0.7859,0.7857,0.7861,0.785,0.7847,0.7845,0.7842,0.7837,0.7837,0.7838,0.7873,0.7831,0.7832,0.7833,0.7902,0.7904,0.7906,0,0,0,0,0,0,0.7874,0.7876,0.7883,0.7876,0.7877,0.786,0.7865,0.7861,0.7863,0.7848,0.7845,0.785,0.7836,0.7837,0.7854,0.7873,0.7833,0.7833,0.7901,0.7903,0.7905,0.7945,0,0,0,0,0,0,0.7874,0.7876,0.7887,0.7877,0.7877,0.7899,0.7866,0.7862,0.7864,0.786,0.7852,0.7849,0.7835,0.7853,0.7855,0.7873,0.7834,0.7899,0.7902,0.7904,0.7942,0.7949,0.7954,0,0,0,0,0,0.7874,0.7899,0.7888,0.789,0.7891,0.79,0.79,0.7883,0.7866,0.7877,0.7868,0.785,0.7871,0.7855,0.7857,0.7876,0.7898,0.7901,0.7904,0.794,0.7947,0.7954,0,0,0,0,0,0,0.7913,0.7898,0.7885,0.7908,0.7906,0.7894,0.7907,0.7892,0.7894,0.7891,0.787,0.7868,0.7889,0.7884,0.7867,0.7906,0.7881,0.7885,0.7908,0.7915,0.7921,0.7921,0.7835,0,0,0,0,0,0.7924,0.7932,0.7919,0.794,0.794,0.7924,0.7927,0.7914,0.7911,0.791,0.7902,0.79,0.7906,0.791,0.7915,0.7942,0.7939,0.7956,0.7962,0.7966,0.797,0.7983,0.799,0.7916,0.7916,0.7916,0,0,0.7947,0.794,0.7946,0.7948,0.7944,0.7954,0.7923,0.7934,0.7941,0.7912,0.7927,0.7922,0.7918,0.794,0.795,0.7937,0.799,0.797,0.7974,0.7975,0.7987,0.7994,0.8001,0.7918,0.7918,0.7917,0,0,0.7994,0.7989,0.8007,0.8004,0.7999,0.7989,0.7993,0.7984,0.7979,0.7994,0.7973,0.7981,0.7991,0.7989,0.799,0.8037,0.802,0.8039,0.8069,0.8083,0.8089,0.8094,0.811,0.8116,0.8043,0.8043,0.8043,0,0.8023,0.8036,0.8018,0.803,0.8031,0.8005,0.8023,0.8021,0.8019,0.802,0.8006,0.8019,0.8015,0.8036,0.8048,0.8049,0.8053,0.8039,0.8089,0.8094,0.8099,0.8114,0.812,0.8045,0.8045,0.8044,0.8044,0,0.8072,0.8081,0.8096,0.8094,0.8097,0.8112,0.8096,0.8101,0.8089,0.808,0.8096,0.809,0.8093,0.8098,0.8086,0.8118,0.811,0.8093,0.8068,0.8109,0.8122,0.8128,0.8048,0.8047,0.8047,0.8046,0,0,0.8142,0.813,0.8135,0.8134,0.8127,0.8134,0.8148,0.8151,0.8156,0.8155,0.8166,0.8177,0.8161,0.8162,0.8149,0.8161,0.8199,0.8143,0.8143,0.8153,0.8233,0.8245,0.8252,0.8188,0.8189,0.8189,0.8233,0,0.8185,0.8208,0.8193,0.8218,0.8226,0.8202,0.8215,0.8212,0.8205,0.8211,0.8202,0.821,0.8189,0.8189,0.82,0.8192,0.8214,0.8188,0.8197,0.8198,0.8198,0.826,0.8272,0.8314,0.8239,0.824,0.824,0,0.8239,0.8241,0.8267,0.8259,0.8262,0.8273,0.8275,0.8281,0.8278,0.8271,0.8273,0.8257,0.827,0.8247,0.8265,0.8248,0.8251,0.8247,0.8248,0.8248,0.8221,0.826,0.8327,0.8333,0.8249,0.8248,0.8247,0,0.8287,0.8296,0.8312,0.8312,0.8303,0.8312,0.8308,0.8304,0.8307,0.8308,0.831,0.8313,0.8315,0.8318,0.8304,0.8288,0.8324,0.8299,0.8319,0.8319,0.8327,0.8326,0.8394,0.833,0.833,0.833,0.833,0,0.8337,0.8354,0.8334,0.8344,0.8362,0.8344,0.8363,0.8357,0.8354,0.8363,0.8343,0.8351,0.8333,0.834,0.8329,0.8346,0.8347,0.8342,0.8339,0.8343,0.8344,0.8344,0.834,0.8332,0.8331,0.8331,0.8331,0,0.8392,0.838,0.8396,0.8386,0.8385,0.8398,0.839,0.8399,0.8391,0.8402,0.8404,0.8391,0.8398,0.8384,0.839,0.8383,0.8406,0.8399,0.8407,0.8404,0.8425,0.8423,0.8494,0.8503,0.8435,0.8435,0.8436,0,0.8425,0.8437,0.8429,0.8433,0.8431,0.8438,0.8441,0.8425,0.8429,0.8426,0.8436,0.8441,0.8445,0.8458,0.8449,0.8453,0.8445,0.847,0.8445,0.845,0.8444,0.8444,0.8445,0.8475,0.8475,0.8476,0.8477,0,0.8483,0.8476,0.8481,0.8484,0.8488,0.8489,0.8489,0.8494,0.8477,0.8482,0.8489,0.8492,0.8498,0.8503,0.8506,0.8502,0.8487,0.8485,0.8489,0.8493,0.8497,0.8495,0.842,0.8483,0.8482,0.8482,0.8481,0.8481,0.8527,0.8537,0.8533,0.8539,0.8537,0.8538,0.8546,0.8539,0.8544,0.8547,0.8538,0.8547,0.8544,0.8545,0.8544,0.8551,0.854,0.8547,0.8549,0.855,0.8553,0.8497,0.8552,0.8552,0.8551,0.8551,0.8551,0,0.8584,0.858,0.8586,0.8587,0.8592,0.8577,0.8576,0.8581,0.859,0.8588,0.8592,0.86,0.8606,0.8598,0.8602,0.861,0.8602,0.8611,0.861,0.8609,0.8563,0.8559,0.8617,0.8617,0.8617,0.8617,0.8617,0.8617,0.8614,0.863,0.8623,0.8638,0.8634,0.8643,0.8644,0.8644,0.8643,0.8653,0.8657,0.8652,0.8648,0.8652,0.8656,0.8654,0.8656,0.8667,0.8662,0.8619,0.8613,0.8606,0.8602,0.8668,0.8668,0.8707,0.8708,0.8708]}]]